sat.trackr.live / text

‹ back to catalog

STARLINK-30935

NORAD 58455 · 2023-183U

PAYLOAD ACTIVE UNKNOWN

§ Identity

Operator
Country
US
Launch date
2023-11-28
Launch site
AFETR
Launch vehicle
Mass (kg)
RCS (m²)

Purposes: comms

External: N2YO · Heavens-Above · Gunter

§ Orbital elements

Epoch: 2026-05-24T22:42:42.280416Z

Period
94.27 min
Inclination
43.0033°
Eccentricity
0.0001297
Mean motion
15.27580670 rev/d
Perigee alt
482.2 km
Apogee alt
483.9 km
Semi-major
6,861.2 km
B*
1.1380e-4
RAAN
331.2262°
Arg perigee
275.9074°
Mean anomaly
84.1630°
Rev number
13,839

§ Raw data

STARLINK-309351 58455U 23183U   26144.94632269  .00002871  00000+0  11380-3 0  99952 58455  43.0033 331.2262 0001297 275.9074  84.1630 15.27580670138391

JSON: /api/v1/satellites/58455 · /tle

For live sub-satellite position, see the globe view (requires WebGL).

§ Visibility from observer

Set your observer location to see the next 7 days of passes ≥ 10°. The values pass through the URL so the page stays shareable.

No JS? Fill the form by hand. The geolocation button needs JavaScript.